Location: *
(34.8620°S, 39.3380°E)
Time: 02:51:13
(UTC+00:00)

YAOGAN 1 - Pass Details

Date: 04 December 2021
Orbit: 618 x 620 km, 97.9° (Epoch: 27 January)

Event Time Altitude Azimuth Distance (km) Brightness Sun altitude
Rises 17:07:51 0° 171° (S) 2,928 6.4 -8.5°
Reaches altitude 10° 17:10:04 10° 172° (S) 2,014 5.6 -8.8°
Maximum altitude 17:14:26 73° 256° (WSW) 658 2.9 -9.6°
Drops below altitude 10° 17:18:44 10° 340° (NNW) 1,987 5.0 -10.3°
Sets 17:20:55 0° 342° (NNW) 2,884 5.8 -10.6°
